Regional Weather Roundup
Issued by NWS Upton, NY

Home | Current Version | Previous Version | Text Only | Print | Product List | Glossary On
Versions: 1 2 3 4 5 6 7 8 9 10 11 12 13 14 15 16 17 18 19 20 21 22 23 24 25 26 27 28 29 30 31 32 33 34 35 36 37 38 39 40 41 42 43 44 45 46 47 48 49 50
000
ASUS41 KOKX 041218
RWROKX

REGIONAL WEATHER ROUNDUP
NATIONAL WEATHER SERVICE NEW YORK NY
800 AM EDT SAT JUL 04 2015

NOTE: "FAIR" INDICATES FEW OR NO CLOUDS BELOW 12,000 FEET WITH NO
SIGNIFICANT WEATHER AND/OR OBSTRUCTIONS TO VISIBILITY.

NYZ071-072-176-178-NJZ106-104-041300-
NEW YORK CITY METRO AREA


CITY           SKY/WX    TMP DP  RH WIND       PRES   REMARKS
CENTRAL PARK   CLOUDY    71  57  61 VRB3      29.97F
LAGUARDIA APRT CLOUDY    70  61  73 NE8       29.94F
KENNEDY INTL   CLOUDY    72  61  68 E8        29.95F
NEWARK/LIBERTY CLOUDY    72  58  61 E5        29.94S
BRNX BOT. GARD   N/A     68  59  73 E7        29.97R
TETERBORO      CLOUDY    71  58  63 E3        29.93F
$$

NYZ177-179-078>081-041300-
LONG ISLAND NEW YORK

CITY           SKY/WX    TMP DP  RH WIND       PRES   REMARKS
FARMINGDALE    CLOUDY    70  60  70 E6        29.95F
ISLIP          CLOUDY    68  61  78 E7        29.94F
SHIRLEY        CLOUDY    68  63  84 VRB5      29.96F
WESTHAMPTON    CLOUDY    68  65  90 E6        29.97F
MONTAUK POINT    N/A     68  62  81 VRB6      29.99S
$$

NYZ052-065-067-041300-
HUDSON VALLEY

CITY           SKY/WX    TMP DP  RH WIND       PRES   REMARKS
WHITE PLAINS   CLOUDY    67  61  81 E3        29.96S
NEWBURGH       PTSUNNY   64  63  94 CALM      29.98S
MONTGOMERY     LGT RAIN  64  61  90 W3        29.97S
POUGHKEEPSIE   CLOUDY    66  60  81 CALM      29.95F
ALBANY         CLOUDY    62  55  77 CALM      29.97R
$$

NJZ001-105-106-008-010-013-015-019>022-104-041300-
NEW JERSEY

CITY           SKY/WX    TMP DP  RH WIND       PRES   REMARKS
NEWARK/LIBERTY CLOUDY    72  58  61 E5        29.94S
TETERBORO      CLOUDY    71  58  63 E3        29.93F
CALDWELL       CLOUDY    69  63  81 NE3       29.95F
MORRISTOWN     CLOUDY    72  70  94 CALM      29.95S FOG
SOMERVILLE     CLOUDY    68  64  87 CALM      29.92S
SUSSEX         LGT RAIN  64  60  87 CALM      29.97S
ANDOVER          N/A     64  61  90 NE3       29.96S
TRENTON        CLOUDY    69  65  86 E7        29.92F
MILLVILLE      PTSUNNY   72  67  84 E9        29.89S
ATLANTIC CITY  PTSUNNY   73  67  81 E9        29.89F
WRIGHTSTOWN    CLOUDY    69  67  94 E6        29.90S
TOMS RIVER     CLOUDY    72  64  78 E3        29.93R
BELMAR         CLOUDY    70  61  73 E7        29.93S
$$

PAZ047>061-062-071-041300-
EASTERN PENNSYLVANIA

CITY           SKY/WX    TMP DP  RH WIND       PRES   REMARKS
PHILADELPHIA   PTSUNNY   72  66  81 NE8       29.92R
ALLENTOWN      LGT RAIN  69  64  84 E6        29.94R
SCRANTON       RAIN      63  62  97 E3        29.98R FOG
$$

CTZ002-004>006-009-010-012-RIZ004-006-007-MAZ004-011-015-041300-
SOUTHERN NEW ENGLAND
 IN CT

CITY           SKY/WX    TMP DP  RH WIND       PRES   REMARKS
BRADLEY INTL   LGT RAIN  61  55  81 N3        29.98S
HARTFORD       CLOUDY    65  60  84 VRB5      29.98R
DANBURY        CLOUDY    64  58  80 CALM      29.99S
WTRBRY/OXFORD  CLOUDY    64  57  77 CALM      29.99S
BRIDGEPORT     CLOUDY    69  64  84 E9        29.96F
MERIDEN        CLOUDY    65  61  87 CALM      29.98R
NEW HAVEN      CLOUDY    67  61  81 NE5       29.97S
CHESTER        FAIR      64  61  88 CALM      29.99F
GROTON         CLOUDY    66  61  84 E6        29.97F
WILLIMANTIC    CLOUDY    61  57  87 N3        30.00R

 IN RI

CITY           SKY/WX    TMP DP  RH WIND       PRES   REMARKS
PROVIDENCE     CLOUDY    66  62  87 CALM      30.00S
BLOCK ISLAND   CLOUDY    66  63  88 E6        29.99S
WESTERLY       CLOUDY    64  61  90 CALM      29.99S

 IN MA

CITY           SKY/WX    TMP DP  RH WIND       PRES   REMARKS
BOSTON         CLOUDY    66  59  78 S5        30.00R
WORCESTER      CLOUDY    63  53  70 W3        30.01S
WESTFIELD      CLOUDY    59  54  83 N3        30.00R
PROVINCETOWN   CLOUDY    66  10  11 S5        30.02R
NANTUCKET      CLOUDY    65  61  87 E5        30.00S
$$

ANZ330-335-338-340-345-350-353-355-041300-
COASTAL MARINE OBSERVATIONS


STATION/POSITION TIME  SKY/WX   TEMP    WIND        PRES    VSBY  WAVE
                                AIR SEA DIR/SP/G                  HT/PER
                 (UTC)          (F)     (DEG/KT/KT) (MB)    (MI)  (FT/S)
NY HARB ENTRANCE 1150            69 69  100/ 12/ 14 1013.1          3/ 8
4S FIRE IS       1103               70                N/A           3/ 8
20S FIRE ISLAND  1150            69 68   90/  8/ 10 1013.6          3/ 8
GREAT SOUTH BAY  NOT AVBL
23SW MTP         1150            68 68   90/ 10/ 10 1014.1          4/ 8
HUDSON CANYON    NOT AVBL
KINGS POINT      1100            68 66   20/  3/  4 1013.6
CENTRAL LI SOUND NOT AVBL
EASTERN LI SOUND 1100            64 65   60/  6/  8   N/A
ROBBINS REEF     1100            71      90/  7/  8 1012.7
$$


>>>>>>>>>>>>>>>>>>>>>>>>>>>> KEY <<<<<<<<<<<<<<<<<<<<<<<<<<<
>                                                          <
>     SKY/WX - SKY CONDITION/PRESENT WEATHER               <
>     TMP    - TEMPERATURE IN FAHRENHEIT                   <
>     DP     - DEWPOINT IN FAHRENHEIT                      <
>     RH     - RELATIVE HUMIDITY IN PERCENT                <
>     WIND   - DIRECTION AND SPEED IN MPH                  <
>     PRES   - MEAN SEA LEVEL PRESSURE IN INCHES OF HG     <
>     WCI    - WIND CHILL INDEX                            <
>     VSB    - VISIBILITY IN MILES                         <
>     HX     - HEAT INDEX                                  <
>     TC     - TEMPERATURE IN CELSIUS                      <
>     VRB    - VARIABLE WIND DIRECTION                     <
>                                                          <
>>>>>>>>>>>>>>>>>>>>>>>>>>>> KEY <<<<<<<<<<<<<<<<<<<<<<<<<<<




USA.gov is the U.S. government's official web portal to all federal, state and local government web resources and services.